weather.gov     
National Weather Service

Regional Weather Roundup
NWS Homepage
This page is being discontinued on March 12, 2014.
The same data is available at this site. Please update your bookmarks.
Thank you, and we apologize for the inconvenience.
Please send an email to SR-SRH.Webmaster@noaa.gov with any concerns.


Current Version
Previous Version:    01  02  03  04  05  06  07  08  09  10  11  12  13  14  15  16  17  18  19  20  21  22  23  24  25  26  27  28  29  30  
   31  32  33  34  35  36  37  38  39  40  41  42  43  44  45  46  47  48  49  50  51  52  53  
[Printable]
738
ASUS41 KGYX 310010
RWRGYX
WEATHER ROUNDUP FOR MAINE AND NEW HAMPSHIRE
NATIONAL WEATHER SERVICE GRAY ME
700 PM EST FRI JAN 30 2015

MEZ002-005-006-010-012-015-018-020-021-024-026-027-029-310100-
MAINE

CITY           SKY/WX    TMP DP  RH WIND       PRES   REMARKS
PORTLAND       LGT SNOW  32  28  85 NW14      29.69F FOG
6HR MIN TEMP:  30; 6HR MAX TEMP:  32; 6HR PCP:  0.12;

SANFORD        CLOUDY    28  25  86 CALM      29.71R
BAR HARBOR     CLOUDY    36  36 100 E8        29.68F
WISCASSET      LGT SNOW  29  27  92 MISG      29.69S FOG
6HR MIN TEMP:  29; 6HR MAX TEMP:  30; 6HR PCP:  0.20;

ROCKLAND       CLOUDY    34  34 100 N5        29.65F
FRYEBURG       CLOUDY    28  21  75 N8        29.72S
6HR MIN TEMP:  28; 6HR MAX TEMP:  29; 6HR PCP:  0.11;

LEWISTONAUBURN CLOUDY    28  27  93 N9        29.69F
AUGUSTA        LGT SNOW  28  27  96 N14       29.69F VSB 1   WCI  17
6HR MIN TEMP:  26; 6HR MAX TEMP:  28; 6HR PCP:  0.14;

WATERVILLE     CLOUDY    28  27  93 N12       29.67F WCI  18
BANGOR         LGT SNOW  33  32  96 NE6       29.69F FOG
6HR MIN TEMP:  28; 6HR MAX TEMP:  33; 6HR PCP:  0.15;

GREENVILLE       N/A     25  24  96 N3        29.67R
6HR MIN TEMP:  25; 6HR MAX TEMP:  28; 6HR PCP:  0.24;

MILLINOCKET    LGT SNOW  30  28  92 NE5       29.75R VSB 1
6HR MIN TEMP:  26; 6HR MAX TEMP:  30; 6HR PCP:  0.20;

HOULTON        LGT SNOW  25  21  85 SE7       29.75S FOG
6HR MIN TEMP:  25; 6HR MAX TEMP:  26; 6HR PCP:  0.02;

PRESQUE ISLE   CLOUDY    25  21  86 CALM      29.77F
6HR MIN TEMP:  25; 6HR MAX TEMP:  27; 6HR PCP:  0.07;

FRENCHVILLE    LGT SNOW  23  20  88 N7        29.76S FOG
6HR MIN TEMP:  22; 6HR MAX TEMP:  24; 6HR PCP:  0.03;

CARIBOU        LGT SNOW  26  24  92 CALM      29.76F VSB 1
6HR MIN TEMP:  24; 6HR MAX TEMP:  26; 6HR PCP:  0.11;

$$

NHZ002-005-008-009-011-012-014-310100-
NEW HAMPSHIRE

CITY           SKY/WX    TMP DP  RH WIND       PRES   REMARKS
PORTSMOUTH     FLURRIES  29  25  85 W12       29.71R WCI  19
ROCHESTER      LGT SNOW  28  23  81 NW14G24   29.71R WCI  17
6HR MIN TEMP:  28; 6HR MAX TEMP:  30; 6HR PCP:  0.03;

NASHUA         FLURRIES  28  19  69 NW22G33   29.77R WCI  15
MANCHESTER     FLURRIES  27  19  72 NW22G32   29.75R WCI  13
6HR MIN TEMP:  27; 6HR MAX TEMP:  32; 6HR PCP: TRACE;

CONCORD        CLOUDY    25  15  66 NW22G29   29.78R WCI  10
6HR MIN TEMP:  25; 6HR MAX TEMP:  32; 6HR PCP:  0.01;

LACONIA        CLOUDY    23  14  68 W10G18    29.74R WCI  12
PLYMOUTH       FLURRIES  18  15  88 W12G24    29.83R WCI   5
BERLIN         LGT SNOW  18   9  68 NW13G22   29.81R WCI   5
6HR MIN TEMP:  18; 6HR MAX TEMP:  29; 6HR PCP:  0.09;

WHITEFIELD     LGT SNOW  15   9  76 NW13      29.86R WCI   1
6HR MIN TEMP:  15; 6HR MAX TEMP:  28; 6HR PCP:  0.07;

JAFFREY        CLOUDY    23  15  71 N9G18     29.76R
6HR MIN TEMP:  23; 6HR MAX TEMP:  30; 6HR PCP: TRACE;

KEENE          CLOUDY    23  10  58 NW14G21   29.84R WCI  11
LEBANON        CLOUDY    17   7  64 N18G28    29.89R WCI   1
6HR MIN TEMP:  17; 6HR MAX TEMP:  32; 6HR PCP: TRACE;

MT WASHINGTON  SNOW       5   5 100 N36         N/A  VSB 1/8 WCI -21
6HR MIN TEMP:   2; 6HR MAX TEMP:  13; 6HR PCP:  0.14;

$$

VTZ005-007-008-310100-
VERMONT

CITY           SKY/WX    TMP DP  RH WIND       PRES   REMARKS
ST JOHNSBURY     N/A     15   7  70 MISG      29.91R
MONTPELIER     LGT SNOW   9   4  80 NW12G22   29.95R WCI  -6
BURLINGTON     LGT SNOW  13   4  67 NW14G26   30.05R WCI  -2
$$

MAZ007-012-024-CTZ003-RIZ002-NYZ038-NYZ072-310100-
SOUTHERN NEW ENGLAND AND NY

CITY           SKY/WX    TMP DP  RH WIND       PRES   REMARKS
BOSTON         FLURRIES  31  24  75 NW16      29.73S WCI  20
WORCESTER      CLEAR     24  17  74 NW21G29   29.73R WCI   9
NANTUCKET      CLOUDY    34  29  82 NW14      29.67F
PROVIDENCE     FLURRIES  32  25  75 NW16G25   29.74F
HARTFORD       PTCLDY    25  13  60 NW18G29   29.86R WCI  11
ALBANY         PTCLDY    17   5  59 W22G31    30.01R WCI   0
NEW YORK CITY  PTCLDY    28  13  53 NW30G40   29.94R WCI  12
$$

ANZ081-ANZ082-ANZ150-NHZ014-MEZ023>029-310100-
COASTAL MARINE OBSERVATIONS

STATION/POSITION TIME  TEMP    WIND        PRES    WAVE
                       AIR SEA DIR/SP/G            HT/PER
                 (UTC) (F)     (DEG/KT/KT) (MB)    (FT/S)
MOUNT DESERT ROC 0000   40                 1003.1F
MATINICUS ROCK   0000           90/ 10/ 11 1003.2F
PORTLAND WX BUOY 2350   32 40  340/ 17/ 23 1004.6F   3/ 6
WELLS            2300   30 35  330/  9/ 11 1005.0F
ISLE OF SHOALS   0000   31     310/ 22/ 25 1004.7F
JEFFREYS LEDGE   2321      43                N/A     4/ 6
CASHES LEDGE BUO 2350   37 44  200/ 16/ 17 1002.8F   3/ 6
$$

.............KEY..............
   WCI - WIND CHILL
   TC  - TEMPERATURE IN CELSIUS
   VSB - VISIBILITY IN MILES
   HX  - HEAT INDEX
   FAIR- INDICATES FEW OR NO CLOUDS BELOW 12,000 FT, WITH NO
         SIGNIFICANT WEATHER AND/OR OBSTRUCTIONS TO VISIBILITY.






U.S. Dept. of Commerce
NOAA National Weather Service
1325 East West Highway
Silver Spring, MD 20910
E-mail: w-nws.webmaster@noaa.gov
Page last modified: May 16, 2007
NATIONAL WEATHER SERVICE: for Safety, for Work, for Fun - FOR LIFE